SLEIPNER A PLATF current weather conditions

sailwx.info

Wind from 240 at 38 knots

Air temperature 9.0° C
Visibility: greater than 5.4 NM
Dewpoint 9.0° C

Last reported at 2014-Dec-21 17:50 UTC.
Time now 2014-Dec-22 02:49 UTC

Location: N 58°22' E 001°54'.
View on Google Maps.

See reports from other nearby stations

  
Tides and Currents Weather Stations Pressure Air Temp Water Temp Dewpoint Dewpoint Depression Visibility Wind Speed Wind Dir Waves Ship Positions
date/time (UTC)wind fromknots sea level pressurealtimeterstation pressurevisibilityair tempwater tempwave heightnotes
2014-Dec-21 17:50 240 38 5.4 9.0
2014-Dec-21 17:20 240 38 3.2 9.0 Light rain.
2014-Dec-21 16:50 240 36 5.4 9.0
2014-Dec-21 15:50 250 38 2.7 9.0 Light rain.
2014-Dec-21 15:20 250 40 5.4 9.0
2014-Dec-21 14:50 250 40 5.4 9.0 Light rain.
2014-Dec-21 14:20 240 38 4.9 9.0 Light rain.
2014-Dec-21 13:50 240 40 4.3 9.0 Light rain.
2014-Dec-21 13:20 240 42 5.4 9.0 Light rain.
2014-Dec-21 12:50 240 44 5.4 9.0 Light rain.
2014-Dec-21 12:20 240 41 5.4 9.0
2014-Dec-21 11:50 240 42 2.7 9.0 Light rain.
2014-Dec-21 11:20 240 39 3.2 9.0 Light rain.
2014-Dec-21 10:50 240 39 4.9 9.0 Light rain.
2014-Dec-21 10:20 240 39 3.8 9.0 Light rain.
2014-Dec-21 09:50 240 37 3.8 8.0 Light rain.
2014-Dec-21 09:20 240 40 3.8 8.0 Light rain.
2014-Dec-21 08:50 240 40 3.8 8.0 Light rain.
2014-Dec-21 08:20 230 40 5.4 8.0 Light rain.
2014-Dec-21 07:50 230 33 4.3 8.0 Light rain.
2014-Dec-21 07:20 230 33 4.3 7.0 Light rain.
2014-Dec-21 06:50 240 30 3.8 7.0 Light rain.
2014-Dec-21 06:20 240 32 5.4 8.0 Light rain.
2014-Dec-21 05:50 230 27 5.4 8.0 Light drizzle.
2014-Dec-21 05:20 230 29 5.4 8.0 Light drizzle.
2014-Dec-21 04:50 230 26 5.4 8.0 Drizzle.
2014-Dec-21 04:20 230 25 5.4 8.0
2014-Dec-21 03:50 230 23 5.4 8.0
2014-Dec-21 03:20 240 23 5.4 8.0
2014-Dec-21 02:50 250 23 5.4 8.0
2014-Dec-21 02:20 260 20 5.4 8.0
2014-Dec-21 01:50 280 25 5.4 7.0 Light rain showers.
2014-Dec-21 01:20 270 18 5.4 8.0
2014-Dec-21 00:50 270 20 5.4 8.0
2014-Dec-21 00:20 270 19 5.4 8.0
2014-Dec-20 23:50 290 17 5.4 8.0
2014-Dec-20 23:20 300 20 5.4 8.0
2014-Dec-20 22:50 300 20 5.4 8.0
2014-Dec-20 22:20 310 23 5.4 7.0
2014-Dec-20 21:50 310 23 5.4 7.0
2014-Dec-20 21:20 310 27 5.4 7.0
2014-Dec-20 20:50 310 29 5.4 7.0
2014-Dec-20 20:20 310 27 5.4 7.0
2014-Dec-20 19:50 320 31 5.4 8.0
2014-Dec-20 19:20 320 32 5.4 8.0
2014-Dec-20 18:50 320 35 5.4 8.0
2014-Dec-20 18:20 320 36 5.4 8.0
2014-Dec-20 17:50 330 43 5.4 8.0
2014-Dec-20 17:20 320 40 gusting 50 5.4 8.0
2014-Dec-20 16:50 320 40 5.4 8.0
2014-Dec-20 16:20 320 46 5.4 8.0
2014-Dec-20 15:50 320 46 5.4 8.0
2014-Dec-20 15:20 320 49 5.4 8.0
2014-Dec-20 14:50 320 50 5.4 8.0 Showers in the vicinity.
2014-Dec-20 14:20 320 48 gusting 58 5.4 8.0 Showers in the vicinity.
2014-Dec-20 13:50 310 53 gusting 68 5.4 7.0 Light rain showers.
2014-Dec-20 13:20 310 49 gusting 59 5.4 8.0 Showers in the vicinity.
2014-Dec-20 12:50 310 49 gusting 65 5.4 8.0 Light rain showers.
2014-Dec-20 12:24 310 50 5.4 8.0
2014-Dec-20 11:50 310 48 5.4 7.0
2014-Dec-20 11:20 310 43 5.4 7.0
2014-Dec-20 10:50 310 44 gusting 55 5.4 7.0
2014-Dec-20 10:20 320 45 5.4 8.0
2014-Dec-20 09:50 320 49 5.4 7.0
2014-Dec-20 09:20 320 49 5.4 7.0
2014-Dec-20 08:50 320 49 5.4 7.0 Showers in the vicinity.
2014-Dec-20 08:20 320 49 gusting 59 5.4 6.0 Light rain showers.
2014-Dec-20 07:50 330 49 5.4 6.0 Light rain showers.
2014-Dec-20 07:20 320 56 gusting 69 2.7 5.0 Light rain showers.
2014-Dec-20 06:50 310 55 2.7 6.0 Light rain showers.
2014-Dec-20 06:20 300 62 5.4 7.0 Thunderstorm.
2014-Dec-20 05:50 300 54 5.4 6.0
2014-Dec-20 05:20 290 47 5.4 6.0
2014-Dec-20 04:50 280 50 5.4 7.0
2014-Dec-20 04:20 290 45 5.4 6.0
2014-Dec-20 03:50 290 44 gusting 54 5.4 6.0 Light rain.
2014-Dec-20 03:20 290 48 5.4 6.0
2014-Dec-20 02:50 290 44 5.4 6.0
2014-Dec-20 02:20 5.4 6.0 Light rain showers.